Location: Cheching
(60.0667°N, 164.2167°W)
Time: 01:12:50
(UTC+00:00)

O/OREOS (USA 219) - Pass Details

Date: 24 January 2021
Orbit: 621 x 646 km, 72.0° (Epoch: 22 May)

Event Time Altitude Azimuth Distance (km) Brightness Sun altitude
Rises 17:01:40 0° 181° (S) 2,952 ? -17.3°
Reaches altitude 10° 17:04:08 10° 171° (S) 2,046 ? -17.0°
Maximum altitude 17:08:09 31° 110° (ESE) 1,150 ? -16.5°
Drops below altitude 10° 17:12:11 10° 50° (NE) 2,053 ? -16.0°
Sets 17:14:39 0° 40° (NE) 2,964 ? -15.7°
